EN

Hourly Weather Amurs'ke

Today, 24 November, Tuesday

Time Temperature Precipitation Wind Pressure Humidity
00:00 +7°C° 0 mm 3 mps 760 mmHg 77%
01:00 +7°C° 0 mm 3 mps 760 mmHg 77%
02:00 +7°C° 0 mm 3 mps 759 mmHg 76%
03:00 +7°C° 0 mm 3 mps 759 mmHg 76%
04:00 +7°C° 0 mm 3 mps 759 mmHg 76%
05:00 +7°C° 0 mm 3 mps 758 mmHg 76%
06:00 +7°C° 0.1 mm 3 mps 758 mmHg 78%
07:00 +7°C° 0.1 mm 3 mps 758 mmHg 80%
08:00 +7°C° 0 mm 2 mps 759 mmHg 78%
09:00 +7°C° 0.1 mm 3 mps 759 mmHg 76%
10:00 +7°C° 0.1 mm 3 mps 759 mmHg 74%
11:00 +7°C° 0.1 mm 3 mps 759 mmHg 72%
12:00 +7°C° 0 mm 3 mps 759 mmHg 70%
13:00 +7°C° 0 mm 3 mps 759 mmHg 68%
14:00 +7°C° 0 mm 3 mps 758 mmHg 66%
15:00 +7°C° 0 mm 3 mps 759 mmHg 66%
16:00 +7°C° 0 mm 3 mps 759 mmHg 66%
17:00 +5°C° 0 mm 3 mps 759 mmHg 66%
18:00 +5°C° 0 mm 3 mps 760 mmHg 65%
19:00 +5°C° 0 mm 3 mps 760 mmHg 64%
20:00 +5°C° 0 mm 3 mps 760 mmHg 64%
21:00 +6°C° 0 mm 2 mps 760 mmHg 65%
22:00 +5°C° 0 mm 2 mps 760 mmHg 67%
23:00 +6°C° 0 mm 1 mps 760 mmHg 68%

Tomorrow, 25 November, Wednesday

Time Temperature Precipitation Wind Pressure Humidity
00:00 +4°C° 0 mm 2 mps 760 mmHg 70%
01:00 +4°C° 0 mm 2 mps 761 mmHg 71%
02:00 +3°C° 0 mm 2 mps 761 mmHg 73%
03:00 +3°C° 0 mm 2 mps 761 mmHg 74%
04:00 +3°C° 0 mm 2 mps 761 mmHg 74%
05:00 +3°C° 0 mm 2 mps 760 mmHg 75%
06:00 +3°C° 0 mm 2 mps 761 mmHg 74%
07:00 +3°C° 0 mm 2 mps 761 mmHg 73%
08:00 +3°C° 0 mm 2 mps 761 mmHg 72%
09:00 +5°C° 0 mm 2 mps 761 mmHg 67%
10:00 +5°C° 0 mm 3 mps 760 mmHg 62%
11:00 +8°C° 0 mm 3 mps 760 mmHg 57%
12:00 +8°C° 0 mm 3 mps 760 mmHg 57%
13:00 +8°C° 0 mm 4 mps 760 mmHg 56%
14:00 +8°C° 0 mm 4 mps 760 mmHg 56%
15:00 +8°C° 0 mm 3 mps 759 mmHg 61%
16:00 +7°C° 0 mm 3 mps 759 mmHg 67%
17:00 +5°C° 0 mm 3 mps 759 mmHg 72%
18:00 +5°C° 0 mm 3 mps 759 mmHg 75%
19:00 +4°C° 0 mm 3 mps 759 mmHg 78%
20:00 +5°C° 0 mm 2 mps 760 mmHg 81%
21:00 +5°C° 0 mm 2 mps 759 mmHg 82%
22:00 +4°C° 0 mm 2 mps 759 mmHg 82%
23:00 +4°C° 0 mm 2 mps 759 mmHg 82%

Day after tomorrow, 26 November, Thursday

Time Temperature Precipitation Wind Pressure Humidity
00:00 +4°C° 0 mm 2 mps 759 mmHg 80%
01:00 +6°C° 0 mm 1 mps 759 mmHg 78%
02:00 +6°C° 0 mm 1 mps 760 mmHg 76%
03:00 +6°C° 0 mm 1 mps 760 mmHg 75%
04:00 +6°C° 0 mm 1 mps 760 mmHg 74%
05:00 +6°C° 0 mm 1 mps 760 mmHg 73%
06:00 +6°C° 0 mm 1 mps 760 mmHg 72%
07:00 +6°C° 0 mm 1 mps 760 mmHg 71%
08:00 +6°C° 0 mm 0 mps 761 mmHg 70%
09:00 +8°C° 0 mm 1 mps 761 mmHg 66%
10:00 +9°C° 0 mm 1 mps 761 mmHg 62%
11:00 +9°C° 0 mm 2 mps 761 mmHg 58%
12:00 +10°C° 0 mm 1 mps 761 mmHg 55%
13:00 +10°C° 0 mm 1 mps 761 mmHg 53%
14:00 +11°C° 0 mm 1 mps 761 mmHg 51%
15:00 +9°C° 0 mm 2 mps 761 mmHg 55%
16:00 +8°C° 0 mm 2 mps 761 mmHg 60%
17:00 +6°C° 0 mm 2 mps 761 mmHg 64%
18:00 +6°C° 0 mm 2 mps 761 mmHg 68%
19:00 +5°C° 0 mm 2 mps 761 mmHg 71%
20:00 +5°C° 0 mm 2 mps 761 mmHg 75%
21:00 +5°C° 0 mm 2 mps 761 mmHg 77%
22:00 +5°C° 0 mm 2 mps 761 mmHg 78%
23:00 +4°C° 0 mm 2 mps 761 mmHg 79%

27 November, Friday

Time Temperature Precipitation Wind Pressure Humidity
00:00 +4°C° 0 mm 2 mps 761 mmHg 81%
01:00 +4°C° 0 mm 2 mps 761 mmHg 82%
02:00 +4°C° 0 mm 2 mps 761 mmHg 84%
03:00 +4°C° 0 mm 2 mps 761 mmHg 84%
04:00 +4°C° 0 mm 2 mps 761 mmHg 84%
05:00 +4°C° 0 mm 2 mps 761 mmHg 84%
06:00 +4°C° 0 mm 2 mps 761 mmHg 82%
07:00 +5°C° 0 mm 2 mps 761 mmHg 80%
08:00 +5°C° 0 mm 2 mps 761 mmHg 78%
09:00 +7°C° 0 mm 2 mps 761 mmHg 71%
10:00 +8°C° 0 mm 2 mps 761 mmHg 64%
11:00 +10°C° 0 mm 2 mps 761 mmHg 57%
12:00 +11°C° 0 mm 1 mps 761 mmHg 56%
13:00 +12°C° 0 mm 1 mps 760 mmHg 55%
14:00 +12°C° 0 mm 1 mps 760 mmHg 54%
15:00 +11°C° 0 mm 1 mps 760 mmHg 60%
16:00 +9°C° 0 mm 1 mps 760 mmHg 66%
17:00 +8°C° 0 mm 1 mps 760 mmHg 72%
18:00 +8°C° 0 mm 1 mps 760 mmHg 74%
19:00 +7°C° 0 mm 1 mps 760 mmHg 76%
20:00 +7°C° 0 mm 1 mps 760 mmHg 78%
21:00 +6°C° 0 mm 1 mps 760 mmHg 78%
22:00 +6°C° 0 mm 1 mps 760 mmHg 78%
23:00 +6°C° 0 mm 1 mps 760 mmHg 79%

28 November, Saturday

Time Temperature Precipitation Wind Pressure Humidity
00:00 +6°C° 0 mm 1 mps 760 mmHg 79%
01:00 +5°C° 0 mm 1 mps 759 mmHg 79%
02:00 +5°C° 0 mm 1 mps 759 mmHg 79%
03:00 +5°C° 0 mm 1 mps 759 mmHg 79%
04:00 +5°C° 0 mm 1 mps 759 mmHg 80%
05:00 +5°C° 0 mm 1 mps 759 mmHg 80%
06:00 +5°C° 0 mm 1 mps 759 mmHg 80%
07:00 +5°C° 0 mm 1 mps 759 mmHg 79%
08:00 +6°C° 0 mm 1 mps 759 mmHg 79%
09:00 +7°C° 0 mm 1 mps 759 mmHg 72%
10:00 +9°C° 0 mm 1 mps 759 mmHg 66%
11:00 +11°C° 0 mm 1 mps 759 mmHg 59%
12:00 +11°C° 0 mm 1 mps 759 mmHg 57%
13:00 +12°C° 0 mm 1 mps 758 mmHg 56%
14:00 +12°C° 0 mm 1 mps 758 mmHg 54%
15:00 +11°C° 0 mm 1 mps 758 mmHg 60%
16:00 +9°C° 0 mm 2 mps 758 mmHg 67%
17:00 +7°C° 0 mm 2 mps 758 mmHg 73%
18:00 +7°C° 0 mm 2 mps 758 mmHg 77%
19:00 +6°C° 0 mm 2 mps 758 mmHg 81%
20:00 +7°C° 0 mm 1 mps 758 mmHg 85%
21:00 +7°C° 0 mm 1 mps 757 mmHg 85%
22:00 +7°C° 0 mm 1 mps 757 mmHg 85%
23:00 +7°C° 0 mm 1 mps 757 mmHg 86%

29 November, Sunday

Time Temperature Precipitation Wind Pressure Humidity
00:00 +7°C° 0 mm 1 mps 757 mmHg 84%
01:00 +6°C° 0 mm 2 mps 756 mmHg 83%
02:00 +6°C° 0 mm 2 mps 756 mmHg 82%
03:00 +7°C° 0 mm 2 mps 756 mmHg 83%
04:00 +7°C° 0 mm 2 mps 756 mmHg 83%
05:00 +8°C° 0 mm 3 mps 756 mmHg 84%
06:00 +8°C° 0 mm 3 mps 755 mmHg 84%
07:00 +8°C° 0 mm 3 mps 755 mmHg 84%
08:00 +8°C° 0 mm 3 mps 755 mmHg 85%
09:00 +8°C° 0 mm 4 mps 755 mmHg 80%
10:00 +10°C° 0 mm 4 mps 755 mmHg 76%
11:00 +10°C° 0 mm 5 mps 755 mmHg 71%
12:00 +11°C° 0 mm 4 mps 755 mmHg 69%
13:00 +11°C° 0 mm 4 mps 755 mmHg 67%
14:00 +11°C° 0 mm 3 mps 755 mmHg 66%
15:00 +10°C° 0 mm 3 mps 755 mmHg 70%
16:00 +9°C° 0 mm 2 mps 755 mmHg 74%
17:00 +8°C° 0 mm 2 mps 755 mmHg 77%
18:00 +8°C° 0 mm 2 mps 755 mmHg 79%
19:00 +7°C° 0 mm 2 mps 755 mmHg 81%
20:00 +7°C° 0 mm 2 mps 755 mmHg 83%
21:00 +7°C° 0 mm 2 mps 755 mmHg 84%
22:00 +7°C° 0 mm 3 mps 755 mmHg 84%
23:00 +7°C° 0 mm 3 mps 756 mmHg 84%
Show more

We Need Your Consent

Meteoprog and our Service Providers may store and access personal data such as cookies, device identifiers or other similar technologies on your device and process such data to personalise content and ads, as well as provide social media features and to analyse the traffic.

  • Store and/or access information on your device

    Cookies, device identifiers or other information can be stored or accessed on your device for the purposes indicated above.

  • Personalised ads and content, ad and content measurement, audience insights, and products development

    Ads and content can be personalised based on a profile. More data can be added to better personalise ads and content. Ad and content performance can be measured. Insights about the audience who saw the ads and content can be derived. Such data can be used to develop or improve user’s experience, systems and software.

By clicking ‘I Agree’ you will allow the use of indicated cookies, device identifiers, web beacons or other similar technologies. Your settings can be changed in the browser on your device.

For certain purposes, legitimate interests may be relied on, rather than consent. You can read more about this in our Privacy and Cookie Policy.